Location: Unspecified
(43.4354°N, 0.0000°E)
Time: 09:24:21
(UTC+00:00)

Tiros 1 despin weight - Pass Details

Date: 02 July 2019
Orbit: 594 x 642 km, 48.2° (Epoch: 24 August)

Event Time Altitude Azimuth Distance (km) Brightness Sun altitude
Rises 21:41:12 0° 278° (W) 2,876 ? -15.9°
Reaches altitude 10° 21:43:37 10° 285° (WNW) 1,963 ? -16.1°
Maximum altitude 21:47:56 45° 358° (N) 831 ? -16.6°
Drops below altitude 10° 21:52:13 10° 72° (ENE) 1,939 ? -17.0°
Enters shadow 21:54:34 - 79° (ENE) 2,835 ? -17.2°
